Cloud_Cover
100 100 100 98 100 100 100 100 100 100 99 94 100 100 100 100 100 100 100 100 100 100 100 100 100 100 100 100 100 100 100 100 100 100 100 100 100 100 100 100 100 100 100 100
100 100 100 95 23 100 100 100 100 100 100 100 100 100 100 100 100 100 100 100 100 100 100 100 100 100 100 100 100 100 100 100 100 100 100 100 100 100 100 100 100 100 100 100
100 100 100 100 100 100 100 100 100 100 100 100 100 100 99 100 100 100 100 100 100 100 100 100 100 100 100 100 100 100 100 100 100 100 100 100 100 100 100 100 100 100 100 100
60 77 100 100 100 100 100 100 100 100 100 100 100 100 100 99 100 100 100 100 100 100 100 100 100 100 100 100 100 100 100 100 100 100 100 100 100 100 100 100 100 100 100 100
100 100 70 100 100 100 100 100 100 100 100 100 100 100 100 100 100 100 100 100 100 100 100 100 100 100 100 100 100 100 100 100 100 100 100 100 79 70 100 66 57 92 100 100
100 100 100 100 100 100 100 100 100 100 100 100 100 100 100 100 100 100 100 100 100 100 100 100 100 100 100 100 100 100 100 100 100 100 99 84 96 94 100 89 90 20 90 100
100 100 100 100 100 100 100 100 100 100 100 100 100 100 100 100 100 100 100 100 100 100 100 100 100 100 100 100 100 100 100 100 100 60 24 5 5 98 100 78 13 21 9 5
97 95 100 100 97 97 100 100 100 100 100 100 100 100 100 88 100 100 100 100 100 100 100 100 100 99 93 89 99 100 100 92 77 32 5 24 96 100 100 100 91 100 93 47
100 100 100 100 100 100 100 100 100 100 100 100 100 100 100 100 100 100 100 100 100 92 100 100 99 100 88 36 5 5 5 5 5 5 5 71 100 100 100 100 100 100 100 88
100 100 99 98 99 90 98 90 98 100 99 100 100 97 98 89 95 100 94 75 76 91 89 72 71 5 5 5 5 5 5 53 65 56 71 90 100 100 100 100 100 99 83 94
57 89 70 94 97 78 74 25 5 8 11 49 54 92 36 18 5 18 8 15 6 5 5 5 5 5 5 5 5 5 10 61 91 100 100 100 100 100 100 87 90 93 90 88
84 56 50 82 81 48 32 81 57 5 5 5 5 5 5 5 5 9 5 5 5 5 5 5 5 5 5 5 5 5 5 5 74 95 100 100 97 53 68 93 70 51 83 40
30 85 90 49 72 85 60 87 85 31 5 5 5 5 5 5 5 5 5 5 5 5 5 5 5 5 5 5 5 5 5 5 25 18 36 68 92 86 58 30 9 41 5 5
5 24 58 94 100 100 100 81 50 14 5 6 22 29 25 16 8 5 5 5 5 5 5 5 5 5 5 6 13 21 29 38 10 11 5 5 5 5 5 5 5 5 47 79
5 5 30 10 22 30 38 36 59 67 51 19 5 5 5 5 5 5 11 12 39 48 43 37 38 32 15 5 5 5 5 31 10 25 5 5 3 2 0 0 0 0 1 3
5 5 18 30 25 28 28 30 29 6 5 25 20 5 5 5 39 62 65 6 5 5 5 8 5 5 5 5 5 5 5 5 8 5 5 5 5 4 5 5 5 5 5 5
5 5 5 10 38 47 36 40 49 10 29 40 39 46 54 58 50 17 5 5 5 5 5 5 5 5 5 5 5 5 5 5 14 5 5 5 5 5 5 5 5 5 5 5
5 5 5 5 6 27 50 35 6 5 5 5 6 36 25 8 5 11 5 5 5 5 5 5 5 5 5 5 5 5 5 5 5 54 5 5 5 5 5 5 5 5 5 5
5 5 5 5 26 18 8 28 56 42 21 5 7 5 5 5 7 5 11 5 5 15 5 32 23 92 93 46 5 5 7 5 13 53 97 69 67 53 7 34 45 33 22 52
73 72 51 73 84 91 80 52 83 61 7 7 33 44 36 28 12 94 99 100 64 16 5 6 86 100 100 71 67 85 80 97 99 91 87 72 72 75 72 90 72 68 70 73
45 90 100 100 69 56 66 74 76 54 18 31 48 10 6 5 6 12 92 100 87 31 5 74 100 100 90 61 17 99 98 70 62 61 55 60 78 69 73 69 70 80 99 80
30 12 62 100 100 91 91 23 56 64 59 52 79 71 57 63 38 23 5 26 51 34 50 99 100 100 97 72 39 98 100 92 60 66 71 81 69 79 77 73 78 89 72 64
52 81 75 44 45 76 98 88 57 81 100 68 15 16 72 52 65 100 56 23 69 96 36 84 100 97 87 88 92 88 86 100 100 98 88 74 60 41 43 57 65 70 74 75
57 57 69 18 5 60 76 96 75 62 78 62 29 8 44 100 88 22 24 88 94 85 63 89 100 96 87 100 100 100 100 100 100 100 100 98 100 100 98 94 70 93 87 89
86 71 64 48 58 88 83 71 87 100 100 100 77 68 62 55 91 62 89 55 88 96 89 100 100 100 99 99 100 100 100 100 91 99 100 100 96 100 97 78 69 97 74 89
95 100 91 71 85 96 99 100 100 100 100 100 100 100 96 66 39 98 91 62 16 74 83 96 98 98 97 93 92 100 100 100 99 91 100 96 80 58 72 78 70 58 90 99
96 97 90 100 100 96 92 100 100 100 100 100 100 100 100 100 77 89 96 86 79 84 78 75 89 100 89 69 88 100 97 100 100 99 88 100 98 95 97 92 90 84 76 90